"Pseudo-MPEC" for P11OrVt

Created 2023 Nov 30 6:22:04 UT using Find_Orb

Click here for an explanation of pseudo-MPECs

 
 Astrometry: 
     P11OrVt* C2023 11 19;+F^5Vn;^W*p8%g;EAJKrA-mja2]V=]\UM8IhQZLmPeLqZr8^C0pF51
     P11OrVt  C2023 11 19.Y(E5y)qTV/WD:7J-A548IAstrometry,P-);0GYZ0lbU';8xIHaF51
     P11OrVt  C2023 11 19Fqqc8,wP0]Z=@u'Bredacted;.aRclick#a'rYAu!Iwr@:0l:6)uF51
     P11OrVt  C2023 11 19.JJ5lYQx3.9o'mNHpI$?v_oaea!VDvdnGyhere:Z*lm9,b@ykBonF51
     P11OrVt  C2023 11 19FhowM^m%9II63r7ffqqY0?[PrLLBtM0CJ8ab+f!TjkA(-(S$;r4ZF51
     P11OrVt  C2023 11 19SSYEuSr+wvC^^(%9for6I+We3eGgCc92wexplanationlPP%O%XGF51

Station data:
(F51) Pan-STARRS 1, Haleakala  (N20.707234 W156.255910)  US/Hawaii.
   Observers J. Bulger, T. Lowe, A. Schultz, M. Willman. Measurers K.
   Chambers, S. Chastel, T. de Boer, L. Denneau, J. Fairlamb, H. Flewelling,
   M. Huber, C.-C. Lin, E. Magnier, Y. Ramanjooloo, R. Wainscoat, R. Weryk.
   1.8-m Ritchey-Chrétien + CCD.

Orbital elements:  P11OrVt
   Perihelion 2023 Jul 5.07306 +/- 234 TT =  1:45:12 (JD 2460130.57306)
Epoch 2023 Nov 20.0 TT = JDT 2460268.5   Earth MOID: 0.2720   Ju: 0.5241
M   6.77716126 +/- 55               Ma: 0.0225                   AutoNEOCP
n   0.04913587 +/- 0.107            Peri.  241.22666 +/- 100
a   7.38250195 +/- 10.7             Node    85.38653 +/- 16
e   0.8489422 +/- 0.275             Incl.   22.02208 +/- 26
P  20.06                   H 19.23  G  0.15   U 11.3  SR
q 1.11518443 +/- 0.764    Q 13.6498194 +/- 11             (J2000 ecliptic)
From 6 observations 2023 Nov. 19 (3.9 hr); mean residual 0".07
Residuals in arcseconds: 
231119 F51  .06+  .00     231119 F51  .04-  .11+    231119 F51  .09+  .08-    
231119 F51  .02+  .10-    231119 F51  .06-  .00     231119 F51  .07-  .07+    

Ephemerides (geocentric):
Date (UTC) HH   RA             Dec           delta  r     elong  mag " sig PA
---- --------  ------------   ------------  ------ ------ -----  --- --------
2023 11 30 06  04 13 15.288   +06 45 08.59  1.3185 2.2856 165.0 22.1 4739  60
2023 11 30 07  04 13 11.924   +06 45 33.30  1.3189 2.2860 165.0 22.1 4810  60
2023 11 30 08  04 13 08.563   +06 45 58.00  1.3194 2.2864 165.0 22.1 4884  60
2023 11 30 09  04 13 05.205   +06 46 22.71  1.3199 2.2869 165.0 22.1 4958  60
2023 11 30 10  04 13 01.849   +06 46 47.42  1.3203 2.2873 165.0 22.1 5034  60
2023 11 30 11  04 12 58.495   +06 47 12.13  1.3208 2.2877 165.0 22.1 5111  60
2023 11 30 12  04 12 55.144   +06 47 36.84  1.3212 2.2881 165.0 22.1 5190  60
2023 11 30 13  04 12 51.795   +06 48 01.56  1.3217 2.2885 165.0 22.1 5270  60
2023 11 30 14  04 12 48.449   +06 48 26.27  1.3221 2.2890 165.0 22.1 5352  60
2023 11 30 15  04 12 45.105   +06 48 50.98  1.3226 2.2894 165.0 22.1 5435  60
2023 11 30 16  04 12 41.763   +06 49 15.70  1.3230 2.2898 164.9 22.1 5519  60
2023 11 30 17  04 12 38.424   +06 49 40.41  1.3235 2.2902 164.9 22.1 5606  60
2023 11 30 18  04 12 35.087   +06 50 05.13  1.3240 2.2906 164.9 22.1 5694  60
2023 11 30 19  04 12 31.753   +06 50 29.84  1.3244 2.2911 164.9 22.1 5783  60
2023 11 30 20  04 12 28.421   +06 50 54.56  1.3249 2.2915 164.9 22.1 5875  60
2023 11 30 21  04 12 25.092   +06 51 19.28  1.3253 2.2919 164.9 22.1 5968  60
2023 11 30 22  04 12 21.765   +06 51 43.99  1.3258 2.2923 164.9 22.1 6063  60
2023 11 30 23  04 12 18.440   +06 52 08.71  1.3263 2.2927 164.9 22.1 6160  60
2023 12 01 00  04 12 15.118   +06 52 33.43  1.3267 2.2932 164.9 22.1 6259  60
2023 12 01 01  04 12 11.799   +06 52 58.15  1.3272 2.2936 164.8 22.1 6359  60
2023 12 01 02  04 12 08.482   +06 53 22.87  1.3276 2.2940 164.8 22.1 6462  60
2023 12 01 03  04 12 05.167   +06 53 47.59  1.3281 2.2944 164.8 22.1 6567  60
2023 12 01 04  04 12 01.855   +06 54 12.31  1.3286 2.2949 164.8 22.1 6674  61
2023 12 01 05  04 11 58.546   +06 54 37.03  1.3290 2.2953 164.8 22.1 6784  61
2023 12 01 06  04 11 55.238   +06 55 01.75  1.3295 2.2957 164.8 22.1 6896  61
2023 12 01 07  04 11 51.934   +06 55 26.48  1.3300 2.2961 164.8 22.1 7010  61
2023 12 01 08  04 11 48.632   +06 55 51.20  1.3304 2.2965 164.8 22.1 7126  61
2023 12 01 09  04 11 45.332   +06 56 15.92  1.3309 2.2970 164.7 22.2 7245  61
2023 12 01 10  04 11 42.035   +06 56 40.65  1.3314 2.2974 164.7 22.2 7367  61
2023 12 01 11  04 11 38.741   +06 57 05.37  1.3318 2.2978 164.7 22.2 7491  61
2023 12 01 12  04 11 35.449   +06 57 30.09  1.3323 2.2982 164.7 22.2 7618  61
2023 12 01 13  04 11 32.159   +06 57 54.82  1.3328 2.2986 164.7 22.2 7748  61
2023 12 01 14  04 11 28.872   +06 58 19.54  1.3332 2.2991 164.7 22.2 7881  61
2023 12 01 15  04 11 25.588   +06 58 44.27  1.3337 2.2995 164.7 22.2 8017  61
2023 12 01 16  04 11 22.306   +06 59 08.99  1.3342 2.2999 164.6 22.2 8155  61
2023 12 01 17  04 11 19.026   +06 59 33.72  1.3346 2.3003 164.6 22.2 8298  61
2023 12 01 18  04 11 15.750   +06 59 58.44  1.3351 2.3007 164.6 22.2 8443  61
2023 12 01 19  04 11 12.475   +07 00 23.17  1.3356 2.3012 164.6 22.2 8592  61
2023 12 01 20  04 11 09.204   +07 00 47.90  1.3361 2.3016 164.6 22.2 8744  61
2023 12 01 21  04 11 05.935   +07 01 12.62  1.3365 2.3020 164.6 22.2 8900  61
2023 12 01 22  04 11 02.668   +07 01 37.35  1.3370 2.3024 164.5 22.2 9059  61
2023 12 01 23  04 10 59.404   +07 02 02.08  1.3375 2.3028 164.5 22.2 9223  61
2023 12 02 00  04 10 56.143   +07 02 26.80  1.3379 2.3033 164.5 22.2 9390  62
2023 12 02 01  04 10 52.884   +07 02 51.53  1.3384 2.3037 164.5 22.2 9562  62
2023 12 02 02  04 10 49.627   +07 03 16.26  1.3389 2.3041 164.5 22.2 9737  62
2023 12 02 03  04 10 46.374   +07 03 40.98  1.3394 2.3045 164.5 22.2 9918  62
2023 12 02 04  04 10 43.123   +07 04 05.71  1.3398 2.3049 164.4 22.2 168'  62
2023 12 02 05  04 10 39.874   +07 04 30.44  1.3403 2.3054 164.4 22.2 172'  62